Regional Weather Roundup
Issued by NWS

Home | Current Version | Previous Version | Graphics & Text | Print | Product List | Glossary On
Versions: 1 2 3 4 5 6 7 8 9 10 11 12 13 14 15 16 17 18 19 20 21 22 23 24 25 26 27 28 29 30 31 32 33 34 35 36 37 38 39 40 41 42 43 44 45 46 47 48 49 50
000
ASUS43 KOAX 291402
RWRNE

WEATHER ROUNDUP FOR NEBRASKA
NATIONAL WEATHER SERVICE OMAHA NE
900 AM CDT TUE JUL 29 2014

NOTES: SATELLITE DATA IS BEING USED TO AUGMENT CLOUD COVER ABOVE
       12000 FEET.
       "FAIR" INDICATES FEW OR NO CLOUDS BELOW 12,000 FEET WITH NO
       SIGNIFICANT WEATHER AND/OR OBSTRUCTIONS TO VISIBILITY.

  * THESE STATIONS DO NOT REPORT WEATHER SUCH AS RAIN...SNOW OR FOG.

NEZ001>004-019>022-054>056-291500-
NEBRASKA PANHANDLE

CITY           SKY/WX    TMP DP  RH WIND       PRES   REMARKS
SCOTTSBLUFF    CLOUDY    61  58  90 E10       30.27R
ALLIANCE       SUNNY     64  56  75 SE13      30.26R
CHADRON        LGT RAIN  62  55  77 NE5       30.27F
KIMBALL        SUNNY     65  57  77 NE3       30.25R
SIDNEY         CLOUDY    60  56  86 E8        30.26R FOG
$$

NEZ057>060-069>072-079>082-291500-
SOUTHWEST NEBRASKA

CITY           SKY/WX    TMP DP  RH WIND       PRES   REMARKS
NORTH PLATTE   PTSUNNY   61  56  83 E9        30.29R
IMPERIAL       SUNNY     63  56  78 E15       30.23R
LEXINGTON      CLOUDY    64  57  80 SE6       30.26R
MCCOOK         SUNNY     66  56  70 E13       30.23S
OGALLALA       PTSUNNY   61  56  84 E10       30.24S
$$

NEZ005>010-023>029-035>040-094-291500-
NORTH CENTRAL NEBRASKA

CITY           SKY/WX    TMP DP  RH WIND       PRES   REMARKS
VALENTINE      MOSUNNY   62  56  80 CALM      30.25S
AINSWORTH      MOSUNNY   65  56  70 S10       30.25S
BROKEN BOW     CLOUDY    63  59  87 SE6       30.26R
O`NEILL        SUNNY     66  54  63 CALM      30.25S
ORD            MOSUNNY   63  59  87 CALM      30.24R
$$

NEZ041-046>049-061>064-073>077-083>087-291500-
SOUTH CENTRAL NEBRASKA

CITY           SKY/WX    TMP DP  RH WIND       PRES   REMARKS
GRAND ISLAND   CLOUDY    67  58  72 SW3       30.25R
AURORA         PTSUNNY   67  61  82 CALM      30.24S
HASTINGS       CLOUDY    65  55  70 SE5       30.25R
HEBRON         CLOUDY    65  57  74 W3        30.23S
HOLDREGE       CLOUDY    64  56  74 SE8       30.25S
KEARNEY *      CLOUDY    64  57  77 SE7       30.25S
YORK           CLOUDY    66  59  77 CALM      30.23F
$$

NEZ011>018-030>034-042>045-291500-
NORTHEAST NEBRASKA

CITY           SKY/WX    TMP DP  RH WIND       PRES   REMARKS
NORFOLK        SUNNY     64  55  72 NW3       30.23S
ALBION         SUNNY     62  56  81 CALM      30.24S
BLAIR          SUNNY     64  58  80 CALM      30.22R
COLUMBUS *     SUNNY     57  55  94 CALM      30.23S
FREMONT        SUNNY     65  59  78 NW3       30.22S
TEKAMAH        SUNNY     65  58  78 N6        30.22S
WAYNE          SUNNY     61  57  89 CALM      30.24S
$$

NEZ050>053-065>068-078-088>093-291500-
SOUTHEAST NEBRASKA

CITY           SKY/WX    TMP DP  RH WIND       PRES   REMARKS
LINCOLN        PTSUNNY   68  58  70 N6        30.23R
OMAHA EPPLEY   MOSUNNY   64  58  80 N6        30.21S
BEATRICE       CLOUDY    65  59  81 N3        30.22R
FALLS CITY     PTSUNNY   67  59  75 N3        30.19S
NEBRASKA CITY  SUNNY     65  60  82 N3        30.21R
PLATTSMOUTH    SUNNY     65  60  84 CALM      30.21S
$$

NEZ044-045-051>053-067-291500-
OMAHA AREA

CITY           SKY/WX    TMP DP  RH WIND       PRES   REMARKS
OMAHA EPPLEY   MOSUNNY   64  58  80 N6        30.21S
BLAIR          SUNNY     64  58  80 CALM      30.22R
FREMONT        SUNNY     65  59  78 NW3       30.22S
MILLARD        SUNNY     67  59  75 CALM      30.21S
OFFUTT AFB     SUNNY     67  65  93 CALM      30.20S
PLATTSMOUTH    SUNNY     65  60  84 CALM      30.21S
WAHOO          FAIR      66  60  80 CALM      30.22S
$$


USA.gov is the U.S. government's official web portal to all federal, state and local government web resources and services.